カタログに戻る

STARLINK-31083

運用中通信VLEO
NORAD 58670·PAYLOAD·🇺🇸 United States

打ち上げ Dec 29, 2023 から Cape Canaveral Space Force Station

Loading…

次のパス (今後24時間)

TLE

最新Source: CelesTrak SupGP

元期: Sep 14, 2026, 22:24 UTC

1 58670C 23211D   26257.93381944  .00009469  00000+0  34308-3 0  2573
2 58670  43.0027  96.1823 0001602 272.7081 356.3570 15.27564575    16

AllMySatでSTARLINK-31083をリアルタイム追跡

Download on the App Store